STARLINK-32290, 60359

Orbit data source: Space-Track

STARLINK-32290, 60359 is a payload satellite owned by SpaceX/Seattle (US) in LEO that was launched on Sun, 04 Aug 2024 UTC via an FALCON 9 launch vehicle from the Air Force Western Test Range (AFWTR). Payload-class satellites include a variety of spacecraft equipped with specific instruments for various scientific and technological missions. These include communications satellites like Starlink; space stations such as the ISS; scientific satellites like the Hubble; Earth observation satellites from companies like Planet Labs, Umbra, and HawkEye 360; GPS; miniature CubeSats for education and research; and military/defense satellites.

Loading next visibility...
Identifier
60359, 2024-138E
Orbit
LEO
Country
Flag of USUS
Related business
Manufacturer
SpaceX/Seattle
Mission
Operational Commercial Communications
Bus & Motor
STARLINK V2M, Unknown motor
Mass
730 kg wet, ~700 kg dry
Launch date (UTC)
2024-08-04 (1 year ago)
Launch vehicle
FALCON 9
Launch site
Air Force Western Test Range (AFWTR)
Object type
Payload
Rocket body
Debris
Shape & HBR
Box + 2 Pan, 17.7 m
Radar Cross Section
33.884 m², Large (>1 m²)

Expand to show TLE details & history
Last TLE update: 1 day ago

TLE from 1 day ago
0 STARLINK-32290
1 60359U 24138E   25353.22634645  .00000376  00000-0  24833-4 0  9991
2 60359  53.1619 323.6800 0001405  83.5040 276.6121 15.30189696 59335
Epoch: 2025-12-19T05:25Z
TLE epoch observation values (Epoch: 2025-12-19T05:25:56.333Z)
Latitude
0.00001°
Longitude
154.12475°
Altitude
476.035 km
Speed
7.629 km/s
True Right ascension
21h 34m 43s
True Declination
0° 00' 00"
Sunlit
Object was in daylight at epoch
Visualization orbit readout
Latitude
Unknown
Longitude
Unknown
Altitude
Unknown
Speed
Unknown
Apparent Right ascension
Unknown
Apparent Declination
Unknown
Sunlit
N/A
Visualization observer readout
Local Sidereal Time
07:56:31
Azimuth
Unknown
Elevation
Unknown
Doppler factor
Unknown
Orbital elements
Apogee altitude
476.465 km
Perigee altitude
474.539 km
Semi-major axis
6,853.639 km
Eccentricity
0.00014
Inclination
53.1619°
RAAN
323.68°
Arg. of periapsis
83.504°
True anomaly
276.59611°
Mean anomaly
276.6121°
Eccentric anomaly
276.6041°
Mean motion
3.82526 °/min
Orbital period
94.11 mins
BSTAR
0.000024833
Loading maneuver chart data...
Computing Atmospheric mass density...
Loading historical data...
Loading historical data...
Loading historical data...
Loading historical data...
Loading historical data...
Loading historical data...
Loading historical data...

Documentation

Showing up to 5 results
|